Burns Flat, OK

10:15 AM CST on February 25, 2017 (GMT -0600)
Clinton-Sherman

Weather History for KCSM - January, 2014

Change the Weather History Date:

Saturday, January 18, 2014

  Actual Average Record
Temperature  
Mean Temperature 47 °F -  
Max Temperature 64 °F 48 °F 75 °F (2015)
Min Temperature 30 °F 27 °F 19 °F (2012)
Degree Days  
Heating Degree Days 18    
Moisture  
Dew Point 18 °F    
Average Humidity 38    
Maximum Humidity 59    
Minimum Humidity 16    
Precipitation  
Precipitation 0.00 in - - ()
Sea Level Pressure  
Sea Level Pressure 30.12 in    
Wind  
Wind Speed 14 mph (NW)    
Max Wind Speed 29 mph    
Max Gust Speed 37 mph    
Visibility 10 miles    
Events      
Averages and records for this station are not official NWS values.
T = Trace of Precipitation, MM = Missing Value Source: NWS Daily Summary

Daily Weather History Graph

Daily Weather History Graph

Search for Another Location

Airport or City:

Trip Planner

Search our weather history database for the weather conditions in past years. The results will help you decide how hot, cold, wet, or windy it might be!

Date:

Astronomy

Jan. 18, 2014 Rise Set
Actual Time 7:44 AM CST 5:50 PM CST
Civil Twilight 7:16 AM CST 6:18 PM CST
Nautical Twilight 6:45 AM CST 6:49 PM CST
Astronomical Twilight 6:15 AM CST 7:19 PM CST
Moon 8:26 PM CST (1/18) 8:51 AM CST (1/18)
Length of Visible Light 11h 01m
Length of Day
10h 06m
Waning Gibbous, 94% of the Moon is Illuminated
Jan 18
Waning Gibbous
Jan 23
Last Quarter
Jan 30
New
Feb 6
First Quarter
Feb 14
Full

Hourly Weather History & Observations

Time (CST) Temp. Windchill Dew Point Humidity Pressure Visibility Wind Dir Wind Speed Gust Speed Precip Events Conditions
12:53 AM 36.0 °F 27.5 °F 17.1 °F 46% 30.09 in 10.0 mi SSW 12.7 mph - N/A   Clear
1:53 AM 34.0 °F 24.6 °F 18.0 °F 52% 30.08 in 10.0 mi SW 13.8 mph - N/A   Clear
2:53 AM 32.0 °F 23.6 °F 18.0 °F 56% 30.08 in 10.0 mi SW 10.4 mph - N/A   Clear
3:53 AM 35.1 °F 26.4 °F 18.0 °F 50% 30.07 in 10.0 mi SW 12.7 mph - N/A   Clear
4:53 AM 33.1 °F 23.9 °F 18.0 °F 54% 30.06 in 10.0 mi SW 12.7 mph - N/A   Clear
5:53 AM 30.9 °F 22.2 °F 18.0 °F 59% 30.06 in 10.0 mi SW 10.4 mph - N/A   Clear
6:53 AM 33.1 °F 25.5 °F 17.1 °F 52% 30.06 in 10.0 mi WSW 9.2 mph - N/A   Clear
7:53 AM 30.0 °F 21.7 °F 17.1 °F 59% 30.07 in 10.0 mi WSW 9.2 mph - N/A   Clear
8:53 AM 42.1 °F 33.9 °F 21.0 °F 43% 30.09 in 10.0 mi NW 17.3 mph 20.7 mph N/A   Clear
9:53 AM 51.1 °F - 19.9 °F 29% 30.09 in 10.0 mi NNW 15.0 mph - N/A   Clear
10:53 AM 59.0 °F - 19.9 °F 22% 30.10 in 10.0 mi NNW 21.9 mph 31.1 mph N/A   Clear
11:53 AM 62.1 °F - 19.0 °F 19% 30.10 in 10.0 mi North 28.8 mph 36.8 mph N/A   Clear
12:53 PM 63.0 °F - 18.0 °F 18% 30.07 in 10.0 mi North 26.5 mph 33.4 mph N/A   Clear
1:53 PM 63.0 °F - 18.0 °F 18% 30.05 in 10.0 mi NNW 24.2 mph 32.2 mph N/A   Clear
2:53 PM 64.0 °F - 17.1 °F 16% 30.06 in 10.0 mi NNW 27.6 mph 36.8 mph N/A   Clear
3:53 PM 63.0 °F - 18.0 °F 18% 30.07 in 10.0 mi NNW 23.0 mph 33.4 mph N/A   Clear
4:53 PM 60.1 °F - 16.0 °F 18% 30.11 in 10.0 mi NNW 19.6 mph 27.6 mph N/A   Clear
5:53 PM 53.1 °F - 18.0 °F 25% 30.15 in 10.0 mi North 13.8 mph - N/A   Clear
6:53 PM 48.0 °F - 19.0 °F 32% 30.18 in 10.0 mi North 9.2 mph - N/A   Clear
7:53 PM 46.0 °F 42.5 °F 18.0 °F 33% 30.21 in 10.0 mi NNW 6.9 mph - N/A   Clear
8:53 PM 44.1 °F 39.0 °F 19.0 °F 37% 30.22 in 10.0 mi North 9.2 mph - N/A   Clear
9:53 PM 36.0 °F - 18.0 °F 48% 30.23 in 10.0 mi Calm Calm - N/A   Clear
10:53 PM 34.0 °F 31.0 °F 18.0 °F 52% 30.25 in 10.0 mi NNW 3.5 mph - N/A   Clear
11:53 PM 34.0 °F 28.8 °F 18.0 °F 52% 30.25 in 10.0 mi WNW 5.8 mph - N/A   Clear